General Heriberto Jara International Airport
MMVR : rendu visible

Aérodrome :











RETROUVEZ-NOUS SUR...

 
LOGIN :

S'inscrire | Disclaimer

   EN    FR    IT 

 









Légende :    VFR   VFR Marginal   IFR   IFR Intensif   IFR Très Intensif
Visi : 
Plafond : 
>= 8 km
>= 3000ft
5 à 8 km
1000 à 3000 ft
1500m à 5 km
500 à 1000 ft
800 à 1500m
200 à 500 ft
< 800m
< 200 ft
Symboles :   Orages  Brouillard  Fortes neiges  Fortes précipitations  Vent > 20 kt






- Altitude de l'aérodrome : 90 ft
- Code IATA : VER


MMVR - General Heriberto Jara International

DERNIER METAR :
  • 241144Z 00000KT 4SM BKN220 19/18 A2987 RMK SLP096 5//// 995 8/008 BR RTS

TAF TAF MMVR
Valide du 24 à 06h jusqu'au 25 à 06h UTC


240411Z 2406/2506 00000KT 5SM HZ SKC TX29/2419Z TN20/2412Z
TEMPO 2411/2415 4SM HZ BKN010
FM241800 12010KT P6SM SCT015 SCT080
FM250500 03006KT P6SM SKC



MET'MAP, la Météo Aéronautique d'un coup d'oeil ! - Copyright ORBIFLY Décembre 2007 - Disclaimer

ORBIFLY MET'MAP TEAM :

Programmation & Développement : Alexandra Zaïnal
Sur une idée originale de : Baudouin d'Aumeries
Assistance à la programmation : Marc-Olivier Méhu
Soutien technique & logistique : Manuel Goepfert

Contact : metmap@orbifly.com




SOURCES & CREDITS :

   NOAA       Earth
Advisory